Weather in Bilyarsk

Russia / Republic of Tatarstan     54°59′04″N   50°22′59″E
temp.,
°C
wind,
m/s
gust,
m/s
humid.,
%
clouds,
%
prec.,
mm/h
press.,
hPa
HPBL,
m
25 january, mon
mon2500:000ssw61294100 0.0 1026369
03:00−1ssw61197100 0.0 1027433
06:00−1ssw71295100 0.0 1028521
09:00−2ssw71195100 0.0 1029548
12:00−1ssw71092100 0.0 1029687
15:00−1s61091100 0.1 1029633
18:00−2s51092100 0.0 1029618
21:00−4s61192100 0.1 1028613
26 january, tue
tue2600:00−4s51194100 0.1 1028635
03:00−3s51094100 0.1 1028520
06:00−3s61194100 0.1 1027485
09:00−3s61192100 0.1 1027607
12:00−2s71091100 0.0 1027657
15:00−2s71192100 0.1 1026580
18:00−3s71293100 0.0 1026523
21:00−5s61294100 0.1 1026537
27 january, wed
wed2700:00−5ssw61094100 0.1 1027602
03:00−4s61193100 0.1 1026621
06:00−5s61293100 0.1 1026565
09:00−6s71194100 0.1 1025440
12:00−6s71393100 0.1 1025386
15:00−6s71392100 0.1 1024387
18:00−7s61492100 0.0 1024368
21:00−8s61392100 0.0 1024334
28 january, thu
thu2800:00−8s71491100 0.0 1023347
03:00−7s71590100 0.0 1022370
06:00−7s71589100 0.0 1022378
09:00−7s81591100 0.0 1021378
12:00−6s71390100 0.0 1021425
15:00−6sse71389100 0.0 1019410
18:00−7sse61390100 0.0 1019344
21:00−7sse61390100 0.0 1019337
29 january, fri
fri2900:00−8sse61390100 0.0 1018276
03:00−8sse51291100 0.0 1017286
06:00−8se51192100 0.0 1015333
09:00−7sse51092100 0.1 1014422
12:00−6sse5991100 0.0 1014523
15:00−5sse4994100 0.1 1012480
18:00−6se3696100 0.2 1012257
21:00−6se3697100 0.4 1010146